sat.trackr.live / text

‹ back to catalog

STARLINK-3245

NORAD 50170 · 2021-125Q

PAYLOAD ACTIVE UNKNOWN

§ Identity

Operator
Country
US
Launch date
2021-12-18
Launch site
AFWTR
Launch vehicle
Mass (kg)
RCS (m²)

Purposes: comms

External: N2YO · Heavens-Above · Gunter

§ Orbital elements

Epoch: 2026-09-19T21:47:13.616736Z

Period
94.01 min
Inclination
53.1598°
Eccentricity
0.0001216
Mean motion
15.31699163 rev/d
Perigee alt
469.9 km
Apogee alt
471.6 km
Semi-major
6,848.9 km
B*
-4.8458e-6
RAAN
84.5586°
Arg perigee
69.5422°
Mean anomaly
290.5710°
Rev number
26,608

§ Raw data

STARLINK-32451 50170U 21125Q   26262.90779649 -.00000515  00000+0 -48458-5 0  99992 50170  53.1598  84.5586 0001216  69.5422 290.5710 15.31699163266080

JSON: /api/v1/satellites/50170 · /tle

For live sub-satellite position, see the globe view (requires WebGL).

§ Visibility from observer

Set your observer location to see the next 7 days of passes ≥ 10°. The values pass through the URL so the page stays shareable.

No JS? Fill the form by hand. The geolocation button needs JavaScript.